TimeEDT,TemperatureF,Dew PointF,Humidity,Sea Level PressureIn,VisibilityMPH,Wind Direction,Wind SpeedMPH,Gust SpeedMPH,PrecipitationIn,Events,Conditions,WindDirDegrees,DateUTC
12:53 AM,69.1,64.0,84,29.84,10.0,SE,8.1,-,N/A,,Mostly Cloudy,140,2013-03-24 04:53:00
1:53 AM,69.1,64.9,87,29.82,10.0,SE,10.4,-,N/A,,Mostly Cloudy,130,2013-03-24 05:53:00
2:53 AM,69.1,64.9,87,29.79,10.0,Variable,3.5,-,N/A,,Mostly Cloudy,0,2013-03-24 06:53:00
3:11 AM,69.8,64.4,83,29.79,10.0,SSE,4.6,-,N/A,,Mostly Cloudy,150,2013-03-24 07:11:00
3:50 AM,69.8,66.2,88,29.77,10.0,SSE,4.6,-,N/A,,Mostly Cloudy,160,2013-03-24 07:50:00
3:53 AM,69.1,66.0,90,29.77,10.0,SSE,5.8,-,N/A,,Mostly Cloudy,150,2013-03-24 07:53:00
4:53 AM,69.1,66.9,93,29.73,10.0,South,5.8,-,N/A,,Clear,180,2013-03-24 08:53:00
5:16 AM,69.8,66.2,88,29.73,9.0,South,3.5,-,N/A,,Mostly Cloudy,190,2013-03-24 09:16:00
5:53 AM,69.1,66.9,93,29.72,7.0,SSE,3.5,-,N/A,,Overcast,160,2013-03-24 09:53:00
6:53 AM,71.1,68.0,90,29.69,7.0,South,9.2,-,N/A,,Overcast,180,2013-03-24 10:53:00
7:06 AM,71.6,68.0,88,29.70,7.0,South,10.4,-,N/A,,Overcast,180,2013-03-24 11:06:00
7:53 AM,72.0,68.0,87,29.70,6.0,SSW,8.1,-,N/A,,Overcast,200,2013-03-24 11:53:00
8:01 AM,71.6,69.8,94,29.70,6.0,SSW,6.9,-,N/A,,Overcast,210,2013-03-24 12:01:00
8:53 AM,75.0,69.1,82,29.73,8.0,SW,10.4,-,N/A,,Overcast,230,2013-03-24 12:53:00
9:32 AM,75.2,69.8,83,29.73,10.0,SW,16.1,24.2,N/A,,Overcast,220,2013-03-24 13:32:00
9:53 AM,75.9,69.1,79,29.73,10.0,SW,17.3,26.5,N/A,,Overcast,220,2013-03-24 13:53:00
10:53 AM,80.1,70.0,71,29.71,10.0,SW,18.4,27.6,N/A,,Mostly Cloudy,220,2013-03-24 14:53:00
11:18 AM,80.6,69.8,70,29.71,10.0,WSW,19.6,33.4,N/A,,Mostly Cloudy,240,2013-03-24 15:18:00
11:50 AM,80.6,69.8,70,29.71,10.0,SW,25.3,36.8,N/A,,Overcast,230,2013-03-24 15:50:00
11:53 AM,80.1,69.1,69,29.70,10.0,SW,21.9,34.5,N/A,,Overcast,230,2013-03-24 15:53:00
12:08 PM,80.6,69.8,70,29.71,10.0,SW,21.9,31.1,N/A,,Overcast,230,2013-03-24 16:08:00
12:53 PM,79.0,70.0,74,29.71,10.0,WSW,17.3,31.1,0.00,Rain,Light Rain,240,2013-03-24 16:53:00
1:12 PM,75.2,71.6,89,29.70,1.8,WSW,15.0,26.5,0.08,Rain,Rain,240,2013-03-24 17:12:00
1:21 PM,75.2,71.6,89,29.70,3.0,SW,12.7,-,0.08,Rain,Light Rain,230,2013-03-24 17:21:00
1:39 PM,75.2,71.6,89,29.68,5.0,SW,13.8,-,0.14,Rain,Light Rain,220,2013-03-24 17:39:00
1:48 PM,75.2,69.8,83,29.67,2.5,SW,17.3,25.3,0.16,Rain,Light Rain,230,2013-03-24 17:48:00
1:53 PM,75.0,70.0,84,29.69,8.0,WSW,15.0,25.3,0.16,Rain,Light Rain,240,2013-03-24 17:53:00
2:12 PM,75.2,71.6,89,29.63,2.5,South,12.7,-,0.05,Rain,Light Rain,190,2013-03-24 18:12:00
2:16 PM,73.4,71.6,94,29.64,5.0,SSW,17.3,23.0,0.05,Rain,Light Rain,210,2013-03-24 18:16:00
2:53 PM,72.0,66.9,84,29.65,10.0,SW,16.1,-,0.05,,Partly Cloudy,230,2013-03-24 18:53:00
3:53 PM,73.9,66.9,79,29.66,10.0,WSW,12.7,19.6,N/A,,Mostly Cloudy,250,2013-03-24 19:53:00
4:53 PM,78.1,71.1,79,29.65,9.0,West,12.7,23.0,N/A,,Overcast,260,2013-03-24 20:53:00
5:26 PM,78.8,71.6,78,29.65,7.0,West,16.1,24.2,N/A,,Mostly Cloudy,270,2013-03-24 21:26:00
5:53 PM,78.1,70.0,76,29.64,7.0,West,16.1,23.0,N/A,,Mostly Cloudy,260,2013-03-24 21:53:00
6:09 PM,77.0,69.8,78,29.65,7.0,West,13.8,20.7,N/A,,Mostly Cloudy,270,2013-03-24 22:09:00
6:37 PM,77.0,69.8,78,29.66,6.0,West,12.7,24.2,N/A,,Haze,260,2013-03-24 22:37:00
6:53 PM,75.9,69.1,79,29.65,6.0,West,11.5,-,N/A,,Haze,260,2013-03-24 22:53:00
7:53 PM,75.0,68.0,79,29.68,6.0,West,8.1,-,N/A,,Haze,260,2013-03-24 23:53:00
8:44 PM,73.4,66.2,78,29.71,8.0,West,15.0,20.7,N/A,,Scattered Clouds,260,2013-03-25 00:44:00
8:53 PM,73.0,66.9,81,29.70,8.0,West,10.4,20.7,N/A,,Partly Cloudy,260,2013-03-25 00:53:00
9:23 PM,71.6,66.2,83,29.71,8.0,West,11.5,-,N/A,,Mostly Cloudy,280,2013-03-25 01:23:00
9:53 PM,71.1,64.9,81,29.72,8.0,West,11.5,17.3,N/A,,Mostly Cloudy,270,2013-03-25 01:53:00
10:00 PM,71.6,64.4,78,29.73,8.0,West,9.2,17.3,N/A,,Scattered Clouds,270,2013-03-25 02:00:00
10:53 PM,69.1,64.0,84,29.74,8.0,WSW,5.8,-,N/A,,Clear,240,2013-03-25 02:53:00
11:53 PM,66.9,64.0,90,29.74,6.0,SW,6.9,-,N/A,,Clear,220,2013-03-25 03:53:00